• In Romania
  • List of Countries
  • For 7 days
  • Water Temperature
  • Satellite Maps
  • Weather Map
  • Weather Widgets
  • user-avatar
    Login

    Hourly Weather Mingachevir

    Today, 23 June, Friday

    Time Temperature Precipitation Wind Pressure Humidity
    00:00 +20°C° 0 mm 1 mps 751 mmHg 80%
    01:00 +20°C° 0 mm 1 mps 751 mmHg 79%
    02:00 +20°C° 0 mm 1 mps 751 mmHg 78%
    03:00 +19°C° 0 mm 2 mps 751 mmHg 77%
    04:00 +20°C° 0 mm 2 mps 751 mmHg 73%
    05:00 +21°C° 0 mm 2 mps 751 mmHg 69%
    06:00 +23°C° 0 mm 2 mps 752 mmHg 65%
    07:00 +24°C° 0 mm 2 mps 752 mmHg 59%
    08:00 +26°C° 0 mm 2 mps 752 mmHg 54%
    09:00 +27°C° 0 mm 3 mps 752 mmHg 48%
    10:00 +28°C° 0 mm 2 mps 751 mmHg 45%
    11:00 +29°C° 0 mm 2 mps 751 mmHg 43%
    12:00 +30°C° 0 mm 1 mps 751 mmHg 40%
    13:00 +31°C° 0.1 mm 1 mps 751 mmHg 39%
    14:00 +31°C° 0.1 mm 1 mps 751 mmHg 38%
    15:00 +32°C° 0.1 mm 1 mps 750 mmHg 37%
    16:00 +31°C° 0.1 mm 1 mps 750 mmHg 38%
    17:00 +31°C° 0.1 mm 1 mps 750 mmHg 40%
    18:00 +31°C° 0.1 mm 1 mps 751 mmHg 41%
    19:00 +29°C° 0.2 mm 2 mps 751 mmHg 47%
    20:00 +26°C° 0.2 mm 2 mps 752 mmHg 53%
    21:00 +24°C° 0.2 mm 3 mps 752 mmHg 58%
    22:00 +24°C° 0.1 mm 2 mps 752 mmHg 61%
    23:00 +23°C° 0.1 mm 2 mps 752 mmHg 63%

    Tomorrow, 24 June, Saturday

    Time Temperature Precipitation Wind Pressure Humidity
    00:00 +22°C° 0.1 mm 1 mps 752 mmHg 65%
    01:00 +22°C° 0 mm 1 mps 752 mmHg 66%
    02:00 +21°C° 0 mm 1 mps 752 mmHg 67%
    03:00 +21°C° 0 mm 1 mps 752 mmHg 68%
    04:00 +22°C° 0 mm 1 mps 752 mmHg 65%
    05:00 +23°C° 0 mm 1 mps 753 mmHg 63%
    06:00 +24°C° 0 mm 2 mps 753 mmHg 60%
    07:00 +25°C° 0 mm 2 mps 752 mmHg 55%
    08:00 +26°C° 0 mm 2 mps 752 mmHg 51%
    09:00 +28°C° 0 mm 2 mps 752 mmHg 47%
    10:00 +29°C° 0 mm 2 mps 751 mmHg 45%
    11:00 +30°C° 0 mm 2 mps 751 mmHg 42%
    12:00 +31°C° 0 mm 2 mps 750 mmHg 40%
    13:00 +32°C° 0 mm 2 mps 750 mmHg 39%
    14:00 +32°C° 0 mm 1 mps 749 mmHg 38%
    15:00 +33°C° 0 mm 1 mps 748 mmHg 36%
    16:00 +32°C° 0 mm 1 mps 748 mmHg 37%
    17:00 +32°C° 0 mm 1 mps 748 mmHg 39%
    18:00 +32°C° 0 mm 1 mps 748 mmHg 40%
    19:00 +30°C° 0 mm 1 mps 749 mmHg 44%
    20:00 +27°C° 0 mm 1 mps 749 mmHg 49%
    21:00 +25°C° 0 mm 1 mps 749 mmHg 54%
    22:00 +25°C° 0 mm 1 mps 749 mmHg 54%
    23:00 +24°C° 0 mm 1 mps 749 mmHg 54%

    Day after tomorrow, 25 June, Sunday

    Time Temperature Precipitation Wind Pressure Humidity
    00:00 +24°C° 0 mm 1 mps 750 mmHg 55%
    01:00 +23°C° 0 mm 1 mps 750 mmHg 56%
    02:00 +23°C° 0 mm 1 mps 750 mmHg 58%
    03:00 +22°C° 0 mm 1 mps 749 mmHg 59%
    04:00 +24°C° 0 mm 1 mps 750 mmHg 57%
    05:00 +25°C° 0 mm 2 mps 750 mmHg 54%
    06:00 +26°C° 0 mm 2 mps 750 mmHg 51%
    07:00 +28°C° 0 mm 3 mps 750 mmHg 45%
    08:00 +29°C° 0 mm 4 mps 750 mmHg 39%
    09:00 +32°C° 0 mm 5 mps 750 mmHg 33%
    10:00 +34°C° 0 mm 5 mps 750 mmHg 31%
    11:00 +35°C° 0 mm 5 mps 750 mmHg 28%
    12:00 +36°C° 0 mm 5 mps 749 mmHg 26%
    13:00 +36°C° 0 mm 4 mps 749 mmHg 25%
    14:00 +37°C° 0 mm 3 mps 749 mmHg 25%
    15:00 +37°C° 0 mm 2 mps 749 mmHg 24%
    16:00 +36°C° 0 mm 2 mps 749 mmHg 27%
    17:00 +36°C° 0 mm 2 mps 750 mmHg 29%
    18:00 +34°C° 0 mm 1 mps 750 mmHg 32%
    19:00 +32°C° 0 mm 2 mps 751 mmHg 38%
    20:00 +29°C° 0 mm 4 mps 751 mmHg 45%
    21:00 +27°C° 0 mm 5 mps 752 mmHg 51%
    22:00 +26°C° 0 mm 4 mps 752 mmHg 54%
    23:00 +25°C° 0 mm 4 mps 753 mmHg 58%

    26 June, Monday

    Time Temperature Precipitation Wind Pressure Humidity
    00:00 +25°C° 0 mm 3 mps 753 mmHg 61%
    01:00 +24°C° 0 mm 3 mps 753 mmHg 62%
    02:00 +24°C° 0 mm 2 mps 753 mmHg 63%
    03:00 +23°C° 0 mm 2 mps 753 mmHg 65%
    04:00 +24°C° 0 mm 2 mps 754 mmHg 62%
    05:00 +25°C° 0 mm 2 mps 754 mmHg 60%
    06:00 +26°C° 0 mm 3 mps 754 mmHg 57%
    07:00 +27°C° 0 mm 3 mps 754 mmHg 53%
    08:00 +29°C° 0 mm 3 mps 754 mmHg 48%
    09:00 +30°C° 0 mm 4 mps 754 mmHg 44%
    10:00 +32°C° 0 mm 4 mps 754 mmHg 41%
    11:00 +33°C° 0 mm 4 mps 753 mmHg 39%
    12:00 +34°C° 0 mm 4 mps 753 mmHg 36%
    13:00 +35°C° 0 mm 4 mps 752 mmHg 35%
    14:00 +35°C° 0 mm 4 mps 752 mmHg 34%
    15:00 +36°C° 0 mm 4 mps 752 mmHg 34%
    16:00 +35°C° 0 mm 4 mps 752 mmHg 35%
    17:00 +35°C° 0 mm 4 mps 752 mmHg 37%
    18:00 +34°C° 0 mm 4 mps 752 mmHg 39%
    19:00 +32°C° 0 mm 4 mps 752 mmHg 43%
    20:00 +29°C° 0 mm 4 mps 753 mmHg 47%
    21:00 +27°C° 0 mm 4 mps 753 mmHg 51%
    22:00 +26°C° 0 mm 3 mps 753 mmHg 54%
    23:00 +25°C° 0 mm 3 mps 753 mmHg 57%

    27 June, Tuesday

    Time Temperature Precipitation Wind Pressure Humidity
    00:00 +24°C° 0 mm 2 mps 753 mmHg 60%
    01:00 +24°C° 0 mm 2 mps 753 mmHg 63%
    02:00 +23°C° 0 mm 1 mps 753 mmHg 65%
    03:00 +22°C° 0 mm 1 mps 753 mmHg 68%
    04:00 +23°C° 0 mm 1 mps 753 mmHg 65%
    05:00 +22°C° 0 mm 0 mps 753 mmHg 62%
    06:00 +24°C° 0 mm 0 mps 753 mmHg 59%
    07:00 +25°C° 0 mm 0 mps 753 mmHg 53%
    08:00 +29°C° 0 mm 1 mps 753 mmHg 47%
    09:00 +30°C° 0 mm 1 mps 752 mmHg 40%
    10:00 +32°C° 0 mm 1 mps 752 mmHg 37%
    11:00 +33°C° 0 mm 1 mps 752 mmHg 34%
    12:00 +36°C° 0 mm 2 mps 751 mmHg 31%
    13:00 +36°C° 0 mm 2 mps 751 mmHg 30%
    14:00 +37°C° 0 mm 2 mps 750 mmHg 28%
    15:00 +38°C° 0 mm 2 mps 750 mmHg 27%
    16:00 +37°C° 0 mm 3 mps 750 mmHg 28%
    17:00 +37°C° 0 mm 3 mps 750 mmHg 29%
    18:00 +37°C° 0 mm 3 mps 750 mmHg 30%
    19:00 +34°C° 0 mm 3 mps 751 mmHg 33%
    20:00 +31°C° 0 mm 3 mps 751 mmHg 36%
    21:00 +29°C° 0 mm 4 mps 752 mmHg 39%
    22:00 +28°C° 0 mm 3 mps 752 mmHg 42%
    23:00 +27°C° 0 mm 3 mps 752 mmHg 44%

    28 June, Wednesday

    Time Temperature Precipitation Wind Pressure Humidity
    00:00 +26°C° 0 mm 2 mps 752 mmHg 46%
    01:00 +25°C° 0 mm 2 mps 752 mmHg 47%
    02:00 +25°C° 0 mm 2 mps 752 mmHg 49%
    03:00 +24°C° 0 mm 1 mps 751 mmHg 50%
    04:00 +25°C° 0 mm 1 mps 752 mmHg 48%
    05:00 +26°C° 0 mm 1 mps 752 mmHg 46%
    06:00 +27°C° 0 mm 1 mps 752 mmHg 44%
    07:00 +29°C° 0 mm 1 mps 752 mmHg 39%
    08:00 +31°C° 0 mm 2 mps 751 mmHg 34%
    09:00 +32°C° 0 mm 2 mps 751 mmHg 29%
    10:00 +35°C° 0 mm 2 mps 751 mmHg 27%
    11:00 +36°C° 0 mm 3 mps 750 mmHg 26%
    12:00 +37°C° 0 mm 3 mps 750 mmHg 24%
    13:00 +38°C° 0 mm 3 mps 749 mmHg 23%
    14:00 +38°C° 0 mm 3 mps 749 mmHg 22%
    15:00 +40°C° 0 mm 4 mps 749 mmHg 22%
    16:00 +38°C° 0 mm 4 mps 749 mmHg 23%
    17:00 +38°C° 0 mm 4 mps 749 mmHg 25%
    18:00 +37°C° 0 mm 4 mps 749 mmHg 26%
    19:00 +35°C° 0 mm 4 mps 749 mmHg 30%
    20:00 +32°C° 0 mm 4 mps 750 mmHg 34%
    21:00 +29°C° 0 mm 4 mps 750 mmHg 38%
    22:00 +28°C° 0.1 mm 3 mps 750 mmHg 41%
    23:00 +27°C° 0.1 mm 3 mps 750 mmHg 44%
    Show more